Content
SEND FEEDBACK

Daily
Averages
Monthly
Summary
United States of America

BIG PINEY, WYOMING


Home > North America > United States > Wyoming
Elevation: 6972 feet     Latitude: 42 34N     Longitude: 110 06W

WEATHER
 
SELECT A DAY
Number of Records: 198,668;   Date Range: 1/1/95 - 8/23/14
 
SHARE

PRINT THIS DATA

[ ← Previous Day ]
WEATHER ALMANAC - JANUARY 31, 2013
[ Next Day → ]
[ °C ]   °F
Weather ElementAverageHighLow
Temperature25.9 °F34 °F (1:53 pm)17.1 °F (9:53 pm)
Dewpoint17.5 °F21 °F (1:53 pm)12.9 °F (9:53 pm)
Humidity71.2 %88 % (10:53 pm)56 % (11:53 am)
Barometer30.19 in30.27 in (7:53 pm)30.05 in (2:53 am)
Wind Speed12.4 mph26.5 mph (3:53 am)
Wind Gust33.4 mph (2:53 am)
Weather ElementAverage
Visibility10 mi
Wind DirectionWSW (247.1 °)

Weather ElementTotal
Precipitation---
Heating Degree Days39.5 (Base 65)
Averaged from 24 records on January 31, 2013
WEATHER CONDITIONS BREAKOUT
WIND DIRECTION BREAKOUT
WEATHER BY HOUR - JANUARY 31, 2013
[ °C ]   °F
Local TimeTemperatureDewpointHumidityBarometerVisibilityWind DirectionWind SpeedGust SpeedPrecipitationEventsConditions
1:53 AM24.1 °F18.0 °F77 %30.06 in10.0 miNNW (340°)15.0 mphClear
2:53 AM25.0 °F18.0 °F75 %30.05 in10.0 miNNW (340°)25.3 mph33.4 mphClear
3:53 AM25.0 °F17.1 °F72 %30.08 in10.0 miNorth (350°)26.5 mph32.2 mphClear
4:53 AM25.0 °F17.1 °F72 %30.13 in10.0 miNorth (350°)21.9 mphClear
5:53 AM23.0 °F16.0 °F74 %30.17 in10.0 miNNW (340°)12.7 mphClear
6:53 AM24.1 °F17.1 °F75 %30.18 in10.0 miNNW (340°)20.7 mphClear
7:53 AM24.1 °F16.0 °F71 %30.20 in10.0 miNorth (350°)18.4 mphClear
8:53 AM27.0 °F17.1 °F66 %30.24 in10.0 miNorth (10°)15.0 mphClear
9:53 AM30.0 °F18.0 °F61 %30.21 in10.0 miNorth (350°)20.7 mph27.6 mphClear
10:53 AM33.1 °F19.9 °F59 %30.21 in10.0 miNNW (330°)13.8 mph19.6 mphClear
11:53 AM32.0 °F18.0 °F56 %30.22 in10.0 miCalmMostly Cloudy
12:50 PM33.8 °F19.4 °F56 %30.16 in10.0 miNorth (350°)13.8 mphMostly Cloudy
12:53 PM33.1 °F19.9 °F59 %30.19 in10.0 miNorth (350°)16.1 mphMostly Cloudy
1:53 PM34.0 °F21.0 °F59 %30.18 in10.0 miNorth (350°)17.3 mphMostly Cloudy
2:53 PM33.1 °F21.0 °F61 %30.18 in10.0 miNNW (340°)15.0 mphPartly Cloudy
3:53 PM30.9 °F21.0 °F67 %30.20 in10.0 miNorth (350°)12.7 mphOvercast
4:53 PM27.0 °F19.9 °F75 %30.22 in10.0 miNNE (30°)5.8 mphMostly Cloudy
5:53 PM24.1 °F18.0 °F77 %30.25 in10.0 miNE (40°)3.5 mphPartly Cloudy
6:53 PM21.9 °F16.0 °F78 %30.25 in10.0 miNorth (350°)10.4 mphClear
7:53 PM19.0 °F14.0 °F81 %30.27 in10.0 miNNW (330°)9.2 mphClear
8:53 PM19.0 °F14.0 °F81 %30.26 in10.0 miCalmPartly Cloudy
9:53 PM17.1 °F12.9 °F84 %30.26 in10.0 miCalmOvercast
10:53 PM18.0 °F15.1 °F88 %30.23 in10.0 miNNW (340°)4.6 mphOvercast
11:53 PM19.0 °F15.1 °F85 %30.22 in10.0 miCalmOvercast
Hourly data recorded from KBPI, located miles away from Big Piney, Wyoming







STORIES FROM OUR PARTNERS